STARLINK-3588, 51869

Orbit data source: Space-Track

STARLINK-3588, 51869 is a payload satellite owned by SpaceX/Seattle (US) in LEO that was launched on Thu, 03 Mar 2022 UTC via an FALCON 9 launch vehicle from the Air Force Eastern Test Range (AFETR). Payload-class satellites include a variety of spacecraft equipped with specific instruments for various scientific and technological missions. These include communications satellites like Starlink; space stations such as the ISS; scientific satellites like the Hubble; Earth observation satellites from companies like Planet Labs, Umbra, and HawkEye 360; GPS; miniature CubeSats for education and research; and military/defense satellites.

Loading next visibility...
Identifier
51869, 2022-022T
Orbit
LEO
Country
Flag of USUS
Related business
Manufacturer
SpaceX/Seattle
Mission
Operational Commercial Communications
Bus & Motor
STARLINK, Unknown motor
Mass
297 kg wet, ~275 kg dry
Launch date (UTC)
2022-03-03 (4 years ago)
Launch vehicle
FALCON 9
Launch site
Air Force Eastern Test Range (AFETR)
Object type
Payload
Rocket body
Debris
Shape & HBR
Box + 1 Pan, 10.1 m
Radar Cross Section
13.562 m², Large (>1 m²)

Expand to show TLE details & history
Last TLE update: 2 days ago

TLE from 2 days ago
0 STARLINK-3588
1 51869U 22022T   26171.29021771 -.00001335  00000-0 -65832-4 0  9995
2 51869  53.1577 268.4147 0001131  82.5507 277.5613 15.08811983238608
Epoch: 2026-06-20T06:57Z
TLE epoch observation values (Epoch: 2026-06-20T06:57:54.810Z)
Latitude
0.00001°
Longitude
-104.57063°
Altitude
540.617 km
Speed
7.593 km/s
True Right ascension
17h 53m 39s
True Declination
0° 00' 00"
Sunlit
Object was in full shadow at epoch
Visualization orbit readout
Latitude
Unknown
Longitude
Unknown
Altitude
Unknown
Speed
Unknown
Apparent Right ascension
Unknown
Apparent Declination
Unknown
Sunlit
N/A
Visualization observer readout
Local Sidereal Time
21:32:37
Azimuth
Unknown
Elevation
Unknown
Doppler factor
Unknown
Orbital elements
Apogee altitude
540.866 km
Perigee altitude
539.301 km
Semi-major axis
6,918.221 km
Eccentricity
0.00011
Inclination
53.1577°
RAAN
268.4147°
Arg. of periapsis
82.5507°
True anomaly
277.54845°
Mean anomaly
277.5613°
Eccentric anomaly
277.55488°
Mean motion
3.77183 °/min
Orbital period
95.44 mins
BSTAR
-0.000065832
Loading maneuver chart data...
Computing Atmospheric mass density...
Loading historical data...
Loading historical data...
Loading historical data...
Loading historical data...
Loading historical data...
Loading historical data...
Loading historical data...

Documentation

Showing up to 5 results
|